Lid_Strength_Index
9 9 9 8 9 9 10 9 9 8 9 8 8 9 10 9 8 7 6 3 4 5 3 0 -2 -1 -1 -1 -1 -1 -1 -1 -1 -2 -2 -2 -2 -2 -2 -2 -2 -2 -2
9 9 10 9 10 10 9 9 9 9 9 9 9 9 10 9 8 8 8 7 5 5 5 2 -0 -1 -1 -1 -1 -1 -1 -1 -1 -1 -1 -1 -1 -1 -2 -2 -2 -2 -2
10 10 10 10 10 9 7 6 6 6 7 8 10 9 10 10 10 9 9 8 7 5 6 4 2 -1 -1 -1 -1 -1 -1 -1 -1 -1 -1 -1 -2 -2 -2 -1 -2 -2 -2
9 10 10 10 8 7 6 6 5 5 6 7 8 9 10 10 10 9 9 8 8 6 6 5 3 1 -0 -1 -1 -1 -1 -1 -1 -1 -1 -1 -2 -2 -2 -2 -2 -2 -2
9 10 10 8 7 6 6 5 5 5 6 6 6 8 9 10 10 9 9 8 7 6 4 5 4 1 0 -0 -1 -1 -2 -1 -1 -1 -1 -1 -2 -2 -2 -2 -2 -2 -2
9 10 8 8 7 6 6 6 6 6 6 6 6 6 8 9 10 10 9 8 7 5 3 5 3 2 3 0 -0 -1 -2 -2 -2 -2 -2 -2 -2 -2 -2 -2 -2 -2 -2
10 10 8 7 7 7 7 6 6 6 6 5 6 6 7 8 7 8 7 6 7 4 3 5 3 2 2 0 0 -1 -1 -2 -2 -2 -2 -1 -1 -1 -2 -2 -2 -2 -2
10 8 7 7 7 7 7 6 6 6 6 4 6 6 9 9 9 8 7 6 6 3 3 3 2 2 2 -0 -0 -0 -1 -1 -1 -1 -1 -1 -1 -1 -2 -2 -2 -2 -2
10 8 7 7 7 7 6 6 5 6 7 5 4 6 10 12 12 8 8 7 7 6 3 3 2 2 1 -0 0 1 1 1 -1 -1 -1 -1 -1 -1 -2 -2 -2 -2 -2
9 7 7 7 7 6 6 6 5 5 5 7 5 5 5 8 11 13 9 8 8 5 4 3 3 2 2 1 0 1 3 3 1 -0 -1 -1 -1 -1 -2 -2 -2 -2 -2
9 8 8 8 7 6 7 6 5 5 5 6 7 7 6 7 9 11 13 11 9 6 4 2 2 2 2 2 -0 1 4 4 2 0 -0 -1 -1 -1 -1 -2 -2 -2 -2
9 8 8 8 7 7 7 6 5 6 6 6 6 7 8 9 11 11 12 12 11 7 5 3 3 2 2 2 1 3 4 4 4 2 0 -0 -1 -1 -1 -2 -2 -2 -2
10 9 8 8 7 8 8 7 6 7 7 7 8 8 8 8 9 10 11 12 11 9 5 3 5 5 5 5 3 4 4 5 5 3 2 1 0 -0 -1 -1 -1 -2 -2
11 9 8 8 8 8 8 8 7 7 8 8 8 9 8 9 10 10 10 12 12 10 7 10 7 8 7 6 6 6 2 5 6 5 3 2 2 1 1 0 -0 -1 -1
10 10 8 8 8 9 9 9 8 8 8 9 9 9 9 9 10 10 10 10 12 13 11 11 10 9 8 6 6 4 2 5 6 6 5 4 3 2 2 1 1 0 -0
12 10 9 8 9 9 9 9 8 9 10 9 9 10 10 9 10 10 10 10 11 12 13 12 11 10 8 7 6 3 0 5 6 7 7 6 4 3 3 3 2 2 1
12 10 9 9 9 9 9 9 9 9 10 10 10 10 11 10 10 10 11 11 12 11 15 12 10 9 9 9 7 -0 2 2 4 7 7 7 6 6 5 5 4 4 3
12 11 10 9 9 9 9 9 10 10 10 11 11 11 11 10 11 10 12 12 12 11 14 13 12 11 9 10 7 2 2 1 1 7 7 7 7 7 7 6 6 6 5
12 11 10 11 10 10 9 9 9 10 11 11 11 12 11 11 11 12 11 13 13 12 13 13 12 12 10 11 10 7 2 1 1 8 9 8 8 7 7 7 7 7 6
12 12 11 11 11 10 9 9 9 10 11 12 11 12 11 11 11 12 12 13 13 12 14 14 13 14 13 12 11 10 8 6 2 4 6 7 7 8 8 8 8 7 7
12 12 12 11 11 10 9 9 9 10 11 13 12 12 11 10 12 11 13 13 13 15 15 16 15 15 16 15 15 13 11 9 5 3 4 4 5 5 6 8 7 7 8
12 13 13 13 12 11 9 8 9 10 11 13 13 12 12 11 12 12 12 12 13 14 17 16 17 17 17 17 16 14 12 10 7 9 5 4 3 4 4 4 7 8 9
13 14 14 14 13 11 9 9 9 11 11 12 13 13 12 12 12 12 12 13 13 13 17 16 17 17 17 17 16 14 12 11 11 12 10 4 3 3 3 4 9 10 10
14 14 14 14 14 11 9 10 10 12 12 12 12 12 12 12 12 13 13 14 14 13 15 15 15 16 16 15 15 13 13 12 10 13 14 6 3 3 2 2 9 10 10
14 14 13 14 15 14 10 10 12 12 13 13 12 12 12 12 11 12 15 15 14 15 15 14 14 14 14 14 15 14 14 12 14 14 15 13 13 10 5 3 4 9 10
13 13 13 14 13 15 12 10 11 13 13 13 13 12 10 12 11 12 14 16 17 16 16 16 15 15 14 14 15 15 15 16 15 16 15 15 15 14 10 11 5 5 6